Time,TemperatureF,DewpointF,PressureIn,WindDirection,WindDirectionDegrees,WindSpeedMPH,WindSpeedGustMPH,Humidity,HourlyPrecipIn,Conditions,Clouds,dailyrainin,SoftwareType,DateUTC
2013-07-12 00:00:00,57.3,45.7,30.15,NE,43,3.0,18.0,65,0.00,,---,0.00,VWS V14.01,2013-07-12 08:00:00,
2013-07-12 00:05:00,57.2,45.6,30.15,ENE,62,3.0,8.0,65,0.00,,---,0.00,VWS V14.01,2013-07-12 08:05:00,
2013-07-12 00:10:00,57.2,45.6,30.14,East,79,3.0,9.0,65,0.00,,---,0.00,VWS V14.01,2013-07-12 08:10:00,
2013-07-12 00:15:00,57.3,45.7,30.14,ENE,69,3.0,9.0,65,0.00,,---,0.00,VWS V14.01,2013-07-12 08:15:00,
2013-07-12 00:20:00,57.3,45.7,30.14,East,84,3.0,9.0,65,0.00,,---,0.00,VWS V14.01,2013-07-12 08:20:00,
2013-07-12 00:25:00,57.3,45.2,30.14,East,84,0.0,10.0,64,0.00,,---,0.00,VWS V14.01,2013-07-12 08:25:00,
2013-07-12 00:30:00,57.2,45.2,30.14,NNE,32,4.0,10.0,64,0.00,,---,0.00,VWS V14.01,2013-07-12 08:30:00,
2013-07-12 00:35:00,57.2,45.6,30.15,NNE,27,4.0,10.0,65,0.00,,---,0.00,VWS V14.01,2013-07-12 08:35:00,
2013-07-12 00:40:00,57.1,45.5,30.15,NNE,19,1.0,10.0,65,0.00,,---,0.00,VWS V14.01,2013-07-12 08:40:00,
2013-07-12 00:45:00,57.2,45.2,30.15,ENE,73,3.0,10.0,64,0.00,,---,0.00,VWS V14.01,2013-07-12 08:45:00,
2013-07-12 00:50:00,57.2,45.6,30.15,NE,49,0.0,10.0,65,0.00,,---,0.00,VWS V14.01,2013-07-12 08:50:00,
2013-07-12 00:55:00,57.1,45.0,30.15,NE,40,2.0,10.0,64,0.00,,---,0.00,VWS V14.01,2013-07-12 08:55:00,
2013-07-12 01:00:00,57.2,45.6,30.15,ENE,59,1.0,10.0,65,0.00,,---,0.00,VWS V14.01,2013-07-12 09:00:00,
2013-07-12 01:05:00,57.2,45.6,30.15,NE,37,4.0,10.0,65,0.00,,---,0.00,VWS V14.01,2013-07-12 09:05:00,
2013-07-12 01:10:00,57.2,45.2,30.15,NNE,30,1.0,10.0,64,0.00,,---,0.00,VWS V14.01,2013-07-12 09:10:00,
2013-07-12 01:15:00,57.2,45.2,30.15,East,82,1.0,12.0,64,0.00,,---,0.00,VWS V14.01,2013-07-12 09:15:00,
2013-07-12 01:20:00,57.1,45.0,30.15,ENE,67,3.0,12.0,64,0.00,,---,0.00,VWS V14.01,2013-07-12 09:20:00,
2013-07-12 01:25:00,57.1,45.0,30.15,ENE,68,0.0,12.0,64,0.00,,---,0.00,VWS V14.01,2013-07-12 09:25:00,
2013-07-12 01:30:00,57.0,45.4,30.15,East,96,4.0,12.0,65,0.00,,---,0.00,VWS V14.01,2013-07-12 09:30:00,
2013-07-12 01:35:00,57.0,45.4,30.15,ENE,70,1.0,7.0,65,0.00,,---,0.00,VWS V14.01,2013-07-12 09:35:00,
2013-07-12 01:40:00,57.0,45.0,30.15,ESE,103,1.0,8.0,64,0.00,,---,0.00,VWS V14.01,2013-07-12 09:40:00,
2013-07-12 01:45:00,57.0,45.0,30.15,ENE,70,0.0,8.0,64,0.00,,---,0.00,VWS V14.01,2013-07-12 09:45:00,
2013-07-12 01:50:00,57.0,45.0,30.15,NE,47,0.0,8.0,64,0.00,,---,0.00,VWS V14.01,2013-07-12 09:50:00,
2013-07-12 01:55:00,56.9,44.9,30.15,ESE,103,2.0,8.0,64,0.00,,---,0.00,VWS V14.01,2013-07-12 09:55:00,
2013-07-12 02:00:00,57.0,45.0,30.15,NE,45,1.0,8.0,64,0.00,,---,0.00,VWS V14.01,2013-07-12 10:00:00,
2013-07-12 02:05:00,57.0,44.5,30.15,ENE,64,2.0,7.0,63,0.00,,---,0.00,VWS V14.01,2013-07-12 10:05:00,
2013-07-12 02:10:00,56.9,44.5,30.15,NE,49,2.0,7.0,63,0.00,,---,0.00,VWS V14.01,2013-07-12 10:10:00,
2013-07-12 02:15:00,56.9,44.9,30.15,ENE,58,3.0,9.0,64,0.00,,---,0.00,VWS V14.01,2013-07-12 10:15:00,
2013-07-12 02:20:00,56.9,44.9,30.14,ENE,71,2.0,9.0,64,0.00,,---,0.00,VWS V14.01,2013-07-12 10:20:00,
2013-07-12 02:25:00,57.0,44.5,30.15,NNE,23,2.0,9.0,63,0.00,,---,0.00,VWS V14.01,2013-07-12 10:25:00,
2013-07-12 02:30:00,57.1,44.6,30.15,ENE,66,5.0,9.0,63,0.00,,---,0.00,VWS V14.01,2013-07-12 10:30:00,
2013-07-12 02:35:00,57.1,44.6,30.15,NE,56,4.0,7.0,63,0.00,,---,0.00,VWS V14.01,2013-07-12 10:35:00,
2013-07-12 02:40:00,57.1,44.6,30.15,East,92,4.0,8.0,63,0.00,,---,0.00,VWS V14.01,2013-07-12 10:40:00,
2013-07-12 02:45:00,57.1,44.6,30.15,SE,140,0.0,8.0,63,0.00,,---,0.00,VWS V14.01,2013-07-12 10:45:00,
2013-07-12 02:50:00,57.0,44.5,30.15,ENE,78,1.0,8.0,63,0.00,,---,0.00,VWS V14.01,2013-07-12 10:50:00,
2013-07-12 02:55:00,57.1,44.6,30.15,East,85,7.0,11.0,63,0.00,,---,0.00,VWS V14.01,2013-07-12 10:55:00,
2013-07-12 03:00:00,57.0,44.5,30.15,East,83,1.0,12.0,63,0.00,,---,0.00,VWS V14.01,2013-07-12 11:00:00,
2013-07-12 03:05:00,57.0,44.5,30.15,ESE,111,0.0,8.0,63,0.00,,---,0.00,VWS V14.01,2013-07-12 11:05:00,
2013-07-12 03:10:00,57.1,44.2,30.15,SE,125,0.0,8.0,62,0.00,,---,0.00,VWS V14.01,2013-07-12 11:10:00,
2013-07-12 03:15:00,57.1,44.2,30.15,ESE,105,2.0,11.0,62,0.00,,---,0.00,VWS V14.01,2013-07-12 11:15:00,
2013-07-12 03:20:00,57.1,44.6,30.15,ENE,69,3.0,11.0,63,0.00,,---,0.00,VWS V14.01,2013-07-12 11:20:00,
2013-07-12 03:25:00,56.9,44.5,30.15,NNE,26,2.0,11.0,63,0.00,,---,0.00,VWS V14.01,2013-07-12 11:25:00,
2013-07-12 03:30:00,56.8,44.3,30.15,ENE,67,4.0,11.0,63,0.00,,---,0.00,VWS V14.01,2013-07-12 11:30:00,
2013-07-12 03:35:00,56.7,44.7,30.15,NE,40,4.0,6.0,64,0.00,,---,0.00,VWS V14.01,2013-07-12 11:35:00,
2013-07-12 03:40:00,56.4,44.4,30.15,ENE,62,1.0,8.0,64,0.00,,---,0.00,VWS V14.01,2013-07-12 11:40:00,
2013-07-12 03:45:00,56.4,44.4,30.15,NNE,32,4.0,8.0,64,0.00,,---,0.00,VWS V14.01,2013-07-12 11:45:00,
2013-07-12 03:50:00,56.6,44.6,30.15,East,88,2.0,8.0,64,0.00,,---,0.00,VWS V14.01,2013-07-12 11:50:00,
2013-07-12 03:55:00,56.6,44.2,30.15,East,97,2.0,8.0,63,0.00,,---,0.00,VWS V14.01,2013-07-12 11:55:00,
2013-07-12 04:00:00,56.7,44.3,30.15,NNE,25,6.0,8.0,63,0.00,,---,0.00,VWS V14.01,2013-07-12 12:00:00,
2013-07-12 04:05:00,56.8,43.9,30.15,ENE,63,4.0,7.0,62,0.00,,---,0.00,VWS V14.01,2013-07-12 12:05:00,
2013-07-12 04:10:00,56.9,44.0,30.14,East,83,3.0,7.0,62,0.00,,---,0.00,VWS V14.01,2013-07-12 12:10:00,
2013-07-12 04:15:00,56.9,44.0,30.14,ESE,104,5.0,7.0,62,0.00,,---,0.00,VWS V14.01,2013-07-12 12:15:00,
2013-07-12 04:20:00,57.0,44.1,30.14,NNE,25,3.0,10.0,62,0.00,,---,0.00,VWS V14.01,2013-07-12 12:20:00,
2013-07-12 04:25:00,57.0,44.1,30.14,East,84,1.0,10.0,62,0.00,,---,0.00,VWS V14.01,2013-07-12 12:25:00,
2013-07-12 04:29:00,56.7,44.3,30.14,ENE,78,2.0,10.0,63,0.00,,---,0.00,VWS V14.01,2013-07-12 12:29:00,
2013-07-12 04:30:00,56.7,43.8,30.15,East,83,3.0,10.0,62,0.00,,---,0.00,VWS V14.01,2013-07-12 12:30:00,
2013-07-12 04:34:00,56.6,44.2,30.14,ENE,63,1.0,5.0,63,0.00,,---,0.00,VWS V14.01,2013-07-12 12:34:00,
2013-07-12 04:39:00,56.6,43.3,30.14,ENE,62,2.0,7.0,61,0.00,,---,0.00,VWS V14.01,2013-07-12 12:39:00,
2013-07-12 04:44:00,56.8,43.5,30.15,ESE,113,2.0,9.0,61,0.00,,---,0.00,VWS V14.01,2013-07-12 12:44:00,
2013-07-12 04:49:00,56.8,43.5,30.15,ESE,115,4.0,9.0,61,0.00,,---,0.00,VWS V14.01,2013-07-12 12:49:00,
2013-07-12 04:54:00,56.8,43.5,30.15,East,96,5.0,9.0,61,0.00,,---,0.00,VWS V14.01,2013-07-12 12:54:00,
2013-07-12 04:59:00,56.8,43.5,30.15,ENE,63,1.0,9.0,61,0.00,,---,0.00,VWS V14.01,2013-07-12 12:59:00,
2013-07-12 05:00:00,56.8,43.5,30.15,ESE,115,5.0,9.0,61,0.00,,---,0.00,VWS V14.01,2013-07-12 13:00:00,
2013-07-12 05:04:00,56.8,43.1,30.15,East,94,0.0,7.0,60,0.00,,---,0.00,VWS V14.01,2013-07-12 13:04:00,
2013-07-12 05:09:00,56.9,43.6,30.15,NE,39,5.0,8.0,61,0.00,,---,0.00,VWS V14.01,2013-07-12 13:09:00,
2013-07-12 05:14:00,56.8,43.5,30.15,NNE,24,5.0,8.0,61,0.00,,---,0.00,VWS V14.01,2013-07-12 13:14:00,
2013-07-12 05:19:00,56.7,43.4,30.15,East,82,5.0,9.0,61,0.00,,---,0.00,VWS V14.01,2013-07-12 13:19:00,
2013-07-12 05:24:00,56.7,43.4,30.14,ENE,63,3.0,9.0,61,0.00,,---,0.00,VWS V14.01,2013-07-12 13:24:00,
2013-07-12 05:29:00,56.7,43.4,30.14,ENE,70,1.0,9.0,61,0.00,,---,0.00,VWS V14.01,2013-07-12 13:29:00,
2013-07-12 05:30:00,56.6,43.3,30.14,NE,44,2.0,11.0,61,0.00,,---,0.00,VWS V14.01,2013-07-12 13:30:00,
2013-07-12 05:34:00,56.6,43.3,30.14,NE,45,2.0,8.0,61,0.00,,---,0.00,VWS V14.01,2013-07-12 13:34:00,
2013-07-12 05:39:00,56.6,43.8,30.14,NE,36,4.0,12.0,62,0.00,,---,0.00,VWS V14.01,2013-07-12 13:39:00,
2013-07-12 05:44:00,56.4,43.6,30.14,ENE,72,2.0,12.0,62,0.00,,---,0.00,VWS V14.01,2013-07-12 13:44:00,
2013-07-12 05:49:00,56.4,43.6,30.14,NE,48,3.0,12.0,62,0.00,,---,0.00,VWS V14.01,2013-07-12 13:49:00,
2013-07-12 05:54:00,56.3,43.5,30.14,NE,46,5.0,12.0,62,0.00,,---,0.00,VWS V14.01,2013-07-12 13:54:00,
2013-07-12 05:59:00,56.4,43.6,30.14,ENE,64,3.0,13.0,62,0.00,,---,0.00,VWS V14.01,2013-07-12 13:59:00,
2013-07-12 06:00:00,56.4,43.6,30.14,NNE,29,4.0,13.0,62,0.00,,---,0.00,VWS V14.01,2013-07-12 14:00:00,
2013-07-12 06:04:00,56.4,43.6,30.14,East,86,0.0,8.0,62,0.00,,---,0.00,VWS V14.01,2013-07-12 14:04:00,
2013-07-12 06:09:00,56.5,43.2,30.14,NE,34,4.0,11.0,61,0.00,,---,0.00,VWS V14.01,2013-07-12 14:09:00,
2013-07-12 06:14:00,56.5,43.2,30.14,NE,54,3.0,11.0,61,0.00,,---,0.00,VWS V14.01,2013-07-12 14:14:00,
2013-07-12 06:19:00,56.6,43.3,30.14,ENE,62,2.0,11.0,61,0.00,,---,0.00,VWS V14.01,2013-07-12 14:19:00,
2013-07-12 06:24:00,56.7,43.4,30.14,ESE,105,5.0,11.0,61,0.00,,---,0.00,VWS V14.01,2013-07-12 14:24:00,
2013-07-12 06:29:00,56.8,43.5,30.14,ENE,61,4.0,11.0,61,0.00,,---,0.00,VWS V14.01,2013-07-12 14:29:00,
2013-07-12 06:30:00,56.8,43.5,30.14,NE,47,2.0,11.0,61,0.00,,---,0.00,VWS V14.01,2013-07-12 14:30:00,
2013-07-12 06:34:00,56.8,43.5,30.14,NNE,29,5.0,8.0,61,0.00,,---,0.00,VWS V14.01,2013-07-12 14:34:00,
2013-07-12 06:39:00,56.9,43.6,30.14,NNE,19,3.0,8.0,61,0.00,,---,0.00,VWS V14.01,2013-07-12 14:39:00,
2013-07-12 06:44:00,57.1,43.8,30.14,ENE,58,3.0,10.0,61,0.00,,---,0.00,VWS V14.01,2013-07-12 14:44:00,
2013-07-12 06:49:00,57.1,43.4,30.14,East,82,1.0,10.0,60,0.00,,---,0.00,VWS V14.01,2013-07-12 14:49:00,
2013-07-12 06:54:00,57.3,43.1,30.14,NNE,30,3.0,10.0,59,0.00,,---,0.00,VWS V14.01,2013-07-12 14:54:00,
2013-07-12 06:59:00,57.5,43.3,30.14,ENE,72,2.0,11.0,59,0.00,,---,0.00,VWS V14.01,2013-07-12 14:59:00,
2013-07-12 07:00:00,57.7,43.0,30.14,ESE,106,5.0,11.0,58,0.00,,---,0.00,VWS V14.01,2013-07-12 15:00:00,
2013-07-12 07:04:00,57.8,43.1,30.14,ESE,102,0.0,9.0,58,0.00,,---,0.00,VWS V14.01,2013-07-12 15:04:00,
2013-07-12 07:09:00,57.9,43.7,30.14,East,93,1.0,9.0,59,0.00,,---,0.00,VWS V14.01,2013-07-12 15:09:00,
2013-07-12 07:14:00,58.0,43.8,30.14,ENE,69,2.0,9.0,59,0.00,,---,0.00,VWS V14.01,2013-07-12 15:14:00,
2013-07-12 07:19:00,58.0,43.8,30.14,East,85,1.0,9.0,59,0.00,,---,0.00,VWS V14.01,2013-07-12 15:19:00,
2013-07-12 07:24:00,58.0,42.9,30.14,ESE,107,1.0,9.0,57,0.00,,---,0.00,VWS V14.01,2013-07-12 15:24:00,
2013-07-12 07:29:00,58.1,43.0,30.14,NNE,30,2.0,9.0,57,0.00,,---,0.00,VWS V14.01,2013-07-12 15:29:00,
2013-07-12 07:30:00,58.1,43.4,30.14,ESE,107,1.0,9.0,58,0.00,,---,0.00,VWS V14.01,2013-07-12 15:30:00,
2013-07-12 07:34:00,58.0,43.8,30.14,ENE,67,1.0,3.0,59,0.00,,---,0.00,VWS V14.01,2013-07-12 15:34:00,
2013-07-12 07:39:00,58.1,43.0,30.14,North,355,4.0,8.0,57,0.00,,---,0.00,VWS V14.01,2013-07-12 15:39:00,
2013-07-12 07:44:00,58.4,42.8,30.14,ENE,67,1.0,11.0,56,0.00,,---,0.00,VWS V14.01,2013-07-12 15:44:00,
2013-07-12 07:49:00,58.6,42.5,30.14,ENE,65,2.0,11.0,55,0.00,,---,0.00,VWS V14.01,2013-07-12 15:49:00,
2013-07-12 07:54:00,58.9,43.2,30.14,East,87,2.0,11.0,56,0.00,,---,0.00,VWS V14.01,2013-07-12 15:54:00,
2013-07-12 07:59:00,59.0,43.3,30.14,ENE,74,6.0,11.0,56,0.00,,---,0.00,VWS V14.01,2013-07-12 15:59:00,
2013-07-12 08:00:00,59.1,43.4,30.14,NE,40,1.0,11.0,56,0.00,,---,0.00,VWS V14.01,2013-07-12 16:00:00,
2013-07-12 08:04:00,59.2,44.0,30.15,ENE,74,3.0,5.0,57,0.00,,---,0.00,VWS V14.01,2013-07-12 16:04:00,
2013-07-12 08:09:00,59.4,42.8,30.14,NE,38,0.0,6.0,54,0.00,,---,0.00,VWS V14.01,2013-07-12 16:09:00,
2013-07-12 08:14:00,59.6,42.5,30.14,East,82,1.0,6.0,53,0.00,,---,0.00,VWS V14.01,2013-07-12 16:14:00,
2013-07-12 08:19:00,59.7,43.5,30.14,East,84,0.0,6.0,55,0.00,,---,0.00,VWS V14.01,2013-07-12 16:19:00,
2013-07-12 08:24:00,59.9,44.2,30.14,SSE,153,1.0,6.0,56,0.00,,---,0.00,VWS V14.01,2013-07-12 16:24:00,
2013-07-12 08:29:00,60.1,43.9,30.14,ESE,111,0.0,6.0,55,0.00,,---,0.00,VWS V14.01,2013-07-12 16:29:00,
2013-07-12 08:30:00,60.2,43.5,30.14,NE,55,5.0,6.0,54,0.00,,---,0.00,VWS V14.01,2013-07-12 16:30:00,
2013-07-12 08:34:00,60.2,43.5,30.14,NE,43,4.0,5.0,54,0.00,,---,0.00,VWS V14.01,2013-07-12 16:34:00,
2013-07-12 08:39:00,60.2,44.0,30.14,East,84,0.0,5.0,55,0.00,,---,0.00,VWS V14.01,2013-07-12 16:39:00,
2013-07-12 08:44:00,60.1,42.4,30.14,NE,45,2.0,6.0,52,0.00,,---,0.00,VWS V14.01,2013-07-12 16:44:00,
2013-07-12 08:49:00,60.0,42.3,30.14,NE,40,0.0,6.0,52,0.00,,---,0.00,VWS V14.01,2013-07-12 16:49:00,
2013-07-12 08:54:00,60.1,43.9,30.14,NE,54,0.0,6.0,55,0.00,,---,0.00,VWS V14.01,2013-07-12 16:54:00,
2013-07-12 08:59:00,60.3,44.6,30.14,ESE,103,2.0,6.0,56,0.00,,---,0.00,VWS V14.01,2013-07-12 16:59:00,
2013-07-12 09:00:00,60.5,44.7,30.14,ENE,63,0.0,6.0,56,0.00,,---,0.00,VWS V14.01,2013-07-12 17:00:00,
2013-07-12 09:04:00,60.6,43.4,30.14,SE,131,0.0,2.0,53,0.00,,---,0.00,VWS V14.01,2013-07-12 17:04:00,
2013-07-12 09:09:00,60.8,43.6,30.14,NE,39,0.0,3.0,53,0.00,,---,0.00,VWS V14.01,2013-07-12 17:09:00,
2013-07-12 09:14:00,60.9,43.7,30.14,ESE,113,2.0,6.0,53,0.00,,---,0.00,VWS V14.01,2013-07-12 17:14:00,
2013-07-12 09:19:00,60.8,43.6,30.14,East,101,0.0,6.0,53,0.00,,---,0.00,VWS V14.01,2013-07-12 17:19:00,
2013-07-12 09:24:00,61.0,44.2,30.14,East,83,1.0,9.0,54,0.00,,---,0.00,VWS V14.01,2013-07-12 17:24:00,
2013-07-12 09:30:00,61.3,44.0,30.14,ENE,65,3.0,9.0,53,0.00,,---,0.00,VWS V14.01,2013-07-12 17:30:00,
2013-07-12 09:35:00,61.5,44.7,30.14,NE,51,0.0,4.0,54,0.00,,---,0.00,VWS V14.01,2013-07-12 17:35:00,
2013-07-12 09:40:00,61.6,44.3,30.14,NE,51,0.0,8.0,53,0.00,,---,0.00,VWS V14.01,2013-07-12 17:40:00,
2013-07-12 09:45:00,61.8,44.5,30.14,East,96,1.0,8.0,53,0.00,,---,0.00,VWS V14.01,2013-07-12 17:45:00,
2013-07-12 09:50:00,62.0,44.7,30.14,ESE,123,0.0,8.0,53,0.00,,---,0.00,VWS V14.01,2013-07-12 17:50:00,
2013-07-12 09:55:00,62.1,44.3,30.14,East,93,0.0,8.0,52,0.00,,---,0.00,VWS V14.01,2013-07-12 17:55:00,
2013-07-12 10:00:00,62.3,44.5,30.14,South,184,0.0,8.0,52,0.00,,---,0.00,VWS V14.01,2013-07-12 18:00:00,
2013-07-12 10:05:00,62.6,44.8,30.14,South,178,0.0,4.0,52,0.00,,---,0.00,VWS V14.01,2013-07-12 18:05:00,
2013-07-12 10:10:00,62.8,45.4,30.14,NE,42,3.0,4.0,53,0.00,,---,0.00,VWS V14.01,2013-07-12 18:10:00,
2013-07-12 10:15:00,62.7,44.3,30.14,ENE,63,0.0,4.0,51,0.00,,---,0.00,VWS V14.01,2013-07-12 18:15:00,
2013-07-12 10:20:00,62.6,44.2,30.14,SSW,194,2.0,5.0,51,0.00,,---,0.00,VWS V14.01,2013-07-12 18:20:00,
2013-07-12 10:26:00,62.7,45.8,30.14,ESE,122,0.0,5.0,54,0.00,,---,0.00,VWS V14.01,2013-07-12 18:26:00,
2013-07-12 10:30:00,63.1,44.7,30.13,ESE,109,0.0,5.0,51,0.00,,---,0.00,VWS V14.01,2013-07-12 18:30:00,
2013-07-12 10:31:00,63.1,44.2,30.14,East,98,0.0,5.0,50,0.00,,---,0.00,VWS V14.01,2013-07-12 18:31:00,
2013-07-12 10:36:00,63.4,45.0,30.14,SSE,164,4.0,6.0,51,0.00,,---,0.00,VWS V14.01,2013-07-12 18:36:00,
2013-07-12 10:41:00,63.7,44.7,30.13,South,189,3.0,6.0,50,0.00,,---,0.00,VWS V14.01,2013-07-12 18:41:00,
2013-07-12 10:46:00,63.8,45.9,30.13,SSE,156,1.0,7.0,52,0.00,,---,0.00,VWS V14.01,2013-07-12 18:46:00,
2013-07-12 10:51:00,63.8,44.8,30.14,South,178,0.0,7.0,50,0.00,,---,0.00,VWS V14.01,2013-07-12 18:51:00,
2013-07-12 10:56:00,64.1,45.6,30.13,SSE,153,1.0,7.0,51,0.00,,---,0.00,VWS V14.01,2013-07-12 18:56:00,
2013-07-12 11:00:00,64.3,44.2,30.13,SSE,156,0.0,7.0,48,0.00,,---,0.00,VWS V14.01,2013-07-12 19:00:00,
2013-07-12 11:01:00,64.3,44.2,30.13,SSE,156,0.0,0.0,48,0.00,,---,0.00,VWS V14.01,2013-07-12 19:01:00,
2013-07-12 11:06:00,64.3,44.2,30.13,South,177,0.0,6.0,48,0.00,,---,0.00,VWS V14.01,2013-07-12 19:06:00,
2013-07-12 11:12:00,64.7,45.1,30.13,NE,42,3.0,6.0,49,0.00,,---,0.00,VWS V14.01,2013-07-12 19:12:00,
2013-07-12 11:17:00,65.0,44.3,30.13,SSW,194,0.0,6.0,47,0.00,,---,0.00,VWS V14.01,2013-07-12 19:17:00,
2013-07-12 11:22:00,65.0,43.7,30.14,SE,132,0.0,6.0,46,0.00,,---,0.00,VWS V14.01,2013-07-12 19:22:00,
2013-07-12 11:27:00,65.1,43.8,30.13,ENE,65,0.0,6.0,46,0.00,,---,0.00,VWS V14.01,2013-07-12 19:27:00,
2013-07-12 11:30:00,65.3,44.6,30.13,ESE,119,0.0,6.0,47,0.00,,---,0.00,VWS V14.01,2013-07-12 19:30:00,
2013-07-12 11:32:00,65.4,44.1,30.13,ESE,119,0.0,1.0,46,0.00,,---,0.00,VWS V14.01,2013-07-12 19:32:00,
2013-07-12 11:37:00,65.7,44.4,30.13,South,182,2.0,6.0,46,0.00,,---,0.00,VWS V14.01,2013-07-12 19:37:00,
2013-07-12 11:42:00,66.1,43.6,30.13,South,178,1.0,6.0,44,0.00,,---,0.00,VWS V14.01,2013-07-12 19:42:00,
2013-07-12 11:47:00,66.2,43.1,30.13,SSE,155,0.0,6.0,43,0.00,,---,0.00,VWS V14.01,2013-07-12 19:47:00,
2013-07-12 11:53:00,66.5,42.7,30.13,SSE,155,0.0,6.0,42,0.00,,---,0.00,VWS V14.01,2013-07-12 19:53:00,
2013-07-12 11:58:00,66.4,43.8,30.13,SE,146,1.0,6.0,44,0.00,,---,0.00,VWS V14.01,2013-07-12 19:58:00,
2013-07-12 12:00:00,66.4,45.0,30.13,East,89,0.0,6.0,46,0.00,,---,0.00,VWS V14.01,2013-07-12 20:00:00,
2013-07-12 12:03:00,66.5,43.9,30.13,ENE,72,0.0,2.0,44,0.00,,---,0.00,VWS V14.01,2013-07-12 20:03:00,
2013-07-12 12:08:00,66.9,43.1,30.13,East,79,1.0,3.0,42,0.00,,---,0.00,VWS V14.01,2013-07-12 20:08:00,
2013-07-12 12:13:00,67.0,42.5,30.13,SE,126,1.0,6.0,41,0.00,,---,0.00,VWS V14.01,2013-07-12 20:13:00,
2013-07-12 12:18:00,66.9,42.5,30.13,SSE,150,0.0,6.0,41,0.00,,---,0.00,VWS V14.01,2013-07-12 20:18:00,
2013-07-12 12:23:00,67.2,42.7,30.13,SSE,150,1.0,6.0,41,0.00,,---,0.00,VWS V14.01,2013-07-12 20:23:00,
2013-07-12 12:28:00,67.8,41.3,30.13,SSW,192,2.0,6.0,38,0.00,,---,0.00,VWS V14.01,2013-07-12 20:28:00,
2013-07-12 12:30:00,68.0,43.5,30.13,SSW,206,1.0,6.0,41,0.00,,---,0.00,VWS V14.01,2013-07-12 20:30:00,
2013-07-12 12:33:00,68.1,42.2,30.13,SSE,153,1.0,2.0,39,0.00,,---,0.00,VWS V14.01,2013-07-12 20:33:00,
2013-07-12 12:38:00,68.2,43.0,30.13,East,95,0.0,3.0,40,0.00,,---,0.00,VWS V14.01,2013-07-12 20:38:00,
2013-07-12 12:43:00,68.1,41.6,30.13,SSE,163,0.0,5.0,38,0.00,,---,0.00,VWS V14.01,2013-07-12 20:43:00,
2013-07-12 12:48:00,67.9,42.1,30.12,ESE,108,0.0,5.0,39,0.00,,---,0.00,VWS V14.01,2013-07-12 20:48:00,
2013-07-12 12:53:00,68.5,43.2,30.13,ESE,123,2.0,5.0,40,0.00,,---,0.00,VWS V14.01,2013-07-12 20:53:00,
2013-07-12 12:58:00,68.9,43.6,30.13,South,172,1.0,5.0,40,0.00,,---,0.00,VWS V14.01,2013-07-12 20:58:00,
2013-07-12 13:00:00,69.0,42.4,30.12,South,185,2.0,6.0,38,0.00,,---,0.00,VWS V14.01,2013-07-12 21:00:00,
2013-07-12 13:03:00,68.8,40.8,30.12,South,185,1.0,3.0,36,0.00,,---,0.00,VWS V14.01,2013-07-12 21:03:00,
2013-07-12 13:08:00,68.9,41.6,30.12,East,80,3.0,3.0,37,0.00,,---,0.00,VWS V14.01,2013-07-12 21:08:00,
2013-07-12 13:13:00,69.1,41.0,30.12,East,98,0.0,5.0,36,0.00,,---,0.00,VWS V14.01,2013-07-12 21:13:00,
2013-07-12 13:18:00,69.7,42.3,30.12,NE,46,0.0,5.0,37,0.00,,---,0.00,VWS V14.01,2013-07-12 21:18:00,
2013-07-12 13:23:00,70.1,40.5,30.12,SSE,166,0.0,7.0,34,0.00,,---,0.00,VWS V14.01,2013-07-12 21:23:00,
2013-07-12 13:28:00,69.7,40.8,30.12,SSE,168,2.0,7.0,35,0.00,,---,0.00,VWS V14.01,2013-07-12 21:28:00,
2013-07-12 13:30:00,69.6,40.8,30.12,SSE,157,2.0,7.0,35,0.00,,---,0.00,VWS V14.01,2013-07-12 21:30:00,
2013-07-12 13:33:00,69.5,40.7,30.12,SSE,165,0.0,5.0,35,0.00,,---,0.00,VWS V14.01,2013-07-12 21:33:00,
2013-07-12 13:38:00,69.4,40.6,30.12,SSW,196,4.0,7.0,35,0.00,,---,0.00,VWS V14.01,2013-07-12 21:38:00,
2013-07-12 13:44:00,69.6,42.2,30.12,SSW,195,1.0,7.0,37,0.00,,---,0.00,VWS V14.01,2013-07-12 21:44:00,
2013-07-12 13:49:00,69.7,40.8,30.11,East,87,2.0,7.0,35,0.00,,---,0.00,VWS V14.01,2013-07-12 21:49:00,
2013-07-12 13:54:00,69.9,41.8,30.11,SE,144,0.0,7.0,36,0.00,,---,0.00,VWS V14.01,2013-07-12 21:54:00,
2013-07-12 13:59:00,70.1,40.5,30.11,ENE,73,2.0,7.0,34,0.00,,---,0.00,VWS V14.01,2013-07-12 21:59:00,
2013-07-12 14:00:00,70.3,42.1,30.11,ENE,73,0.0,7.0,36,0.00,,---,0.00,VWS V14.01,2013-07-12 22:00:00,
2013-07-12 14:04:00,70.7,41.7,30.11,NNE,17,3.0,4.0,35,0.00,,---,0.00,VWS V14.01,2013-07-12 22:04:00,
2013-07-12 14:09:00,71.5,43.9,30.11,NNE,17,0.0,4.0,37,0.00,,---,0.00,VWS V14.01,2013-07-12 22:09:00,
2013-07-12 14:14:00,72.1,43.0,30.11,NE,52,3.0,4.0,35,0.00,,---,0.00,VWS V14.01,2013-07-12 22:14:00,
2013-07-12 14:19:00,71.8,40.4,30.11,ENE,59,1.0,5.0,32,0.00,,---,0.00,VWS V14.01,2013-07-12 22:19:00,
2013-07-12 14:25:00,71.7,41.9,30.11,East,80,1.0,5.0,34,0.00,,---,0.00,VWS V14.01,2013-07-12 22:25:00,
2013-07-12 14:30:00,71.5,41.7,30.11,NNE,32,2.0,5.0,34,0.00,,---,0.00,VWS V14.01,2013-07-12 22:30:00,
2013-07-12 14:35:00,71.5,41.7,30.11,NNE,26,1.0,4.0,34,0.00,,---,0.00,VWS V14.01,2013-07-12 22:35:00,
2013-07-12 14:40:00,71.6,41.8,30.10,East,96,0.0,4.0,34,0.00,,---,0.00,VWS V14.01,2013-07-12 22:40:00,
2013-07-12 14:45:00,71.8,42.0,30.10,SE,133,0.0,4.0,34,0.00,,---,0.00,VWS V14.01,2013-07-12 22:45:00,
2013-07-12 14:51:00,72.2,43.1,30.10,SSE,161,1.0,4.0,35,0.00,,---,0.00,VWS V14.01,2013-07-12 22:51:00,
2013-07-12 14:56:00,72.5,41.0,30.10,ESE,102,1.0,4.0,32,0.00,,---,0.00,VWS V14.01,2013-07-12 22:56:00,
2013-07-12 15:00:00,72.3,42.4,30.10,East,86,0.0,4.0,34,0.00,,---,0.00,VWS V14.01,2013-07-12 23:00:00,
2013-07-12 15:01:00,72.3,41.6,30.10,East,86,1.0,4.0,33,0.00,,---,0.00,VWS V14.01,2013-07-12 23:01:00,
2013-07-12 15:06:00,72.2,41.5,30.10,SE,133,0.0,3.0,33,0.00,,---,0.00,VWS V14.01,2013-07-12 23:06:00,
2013-07-12 15:11:00,72.0,40.6,30.10,SSE,159,2.0,5.0,32,0.00,,---,0.00,VWS V14.01,2013-07-12 23:11:00,
2013-07-12 15:16:00,71.9,41.3,30.10,SSE,159,0.0,5.0,33,0.00,,---,0.00,VWS V14.01,2013-07-12 23:16:00,
2013-07-12 15:21:00,72.5,41.8,30.10,SSE,161,2.0,5.0,33,0.00,,---,0.00,VWS V14.01,2013-07-12 23:21:00,
2013-07-12 15:26:00,73.1,41.5,30.09,East,88,0.0,5.0,32,0.00,,---,0.00,VWS V14.01,2013-07-12 23:26:00,
2013-07-12 15:30:00,73.2,41.6,30.09,NE,53,0.0,6.0,32,0.00,,---,0.00,VWS V14.01,2013-07-12 23:30:00,
2013-07-12 15:31:00,73.2,41.6,30.09,NE,53,0.0,0.0,32,0.00,,---,0.00,VWS V14.01,2013-07-12 23:31:00,
2013-07-12 15:36:00,73.5,41.9,30.09,NNW,344,2.0,3.0,32,0.00,,---,0.00,VWS V14.01,2013-07-12 23:36:00,
2013-07-12 15:41:00,73.9,43.0,30.09,SW,227,2.0,3.0,33,0.00,,---,0.00,VWS V14.01,2013-07-12 23:41:00,
2013-07-12 15:46:00,74.0,38.9,30.09,ENE,62,2.0,8.0,28,0.00,,---,0.00,VWS V14.01,2013-07-12 23:46:00,
2013-07-12 15:51:00,73.7,40.4,30.09,ENE,76,0.0,8.0,30,0.00,,---,0.00,VWS V14.01,2013-07-12 23:51:00,
2013-07-12 15:57:00,73.6,40.3,30.09,SE,130,0.0,8.0,30,0.00,,---,0.00,VWS V14.01,2013-07-12 23:57:00,
2013-07-12 16:00:00,73.4,39.2,30.09,NE,51,1.0,8.0,29,0.00,,---,0.00,VWS V14.01,2013-07-13 00:00:00,
2013-07-12 16:01:00,73.4,39.2,30.09,NE,51,0.0,1.0,29,0.00,,---,0.00,VWS V14.01,2013-07-13 00:01:00,
2013-07-12 16:07:00,73.5,39.3,30.08,ESE,119,0.0,2.0,29,0.00,,---,0.00,VWS V14.01,2013-07-13 00:07:00,
2013-07-12 16:12:00,73.7,38.6,30.08,SE,128,1.0,2.0,28,0.00,,---,0.00,VWS V14.01,2013-07-13 00:12:00,
2013-07-12 16:17:00,73.8,40.5,30.08,ESE,117,2.0,2.0,30,0.00,,---,0.00,VWS V14.01,2013-07-13 00:17:00,
2013-07-12 16:22:00,73.9,39.7,30.08,ESE,122,1.0,4.0,29,0.00,,---,0.00,VWS V14.01,2013-07-13 00:22:00,
2013-07-12 16:27:00,74.2,38.1,30.08,ESE,121,0.0,4.0,27,0.00,,---,0.00,VWS V14.01,2013-07-13 00:27:00,
2013-07-12 16:30:00,74.4,39.2,30.08,SE,131,2.0,5.0,28,0.00,,---,0.00,VWS V14.01,2013-07-13 00:30:00,
2013-07-12 16:32:00,74.5,40.2,30.08,SE,131,0.0,4.0,29,0.00,,---,0.00,VWS V14.01,2013-07-13 00:32:00,
2013-07-12 16:37:00,74.4,39.2,30.08,NE,42,2.0,5.0,28,0.00,,---,0.00,VWS V14.01,2013-07-13 00:37:00,
2013-07-12 16:42:00,74.6,40.3,30.08,ESE,118,2.0,5.0,29,0.00,,---,0.00,VWS V14.01,2013-07-13 00:42:00,
2013-07-12 16:47:00,74.6,38.5,30.08,NNE,13,0.0,5.0,27,0.00,,---,0.00,VWS V14.01,2013-07-13 00:47:00,
2013-07-12 16:52:00,74.5,39.3,30.07,NNW,344,0.0,5.0,28,0.00,,---,0.00,VWS V14.01,2013-07-13 00:52:00,
2013-07-12 16:57:00,74.5,37.4,30.08,ENE,59,0.0,7.0,26,0.00,,---,0.00,VWS V14.01,2013-07-13 00:57:00,
2013-07-12 17:00:00,74.4,37.3,30.08,NE,46,0.0,7.0,26,0.00,,---,0.00,VWS V14.01,2013-07-13 01:00:00,
2013-07-12 17:02:00,74.4,37.3,30.07,SE,143,1.0,4.0,26,0.00,,---,0.00,VWS V14.01,2013-07-13 01:02:00,
2013-07-12 17:07:00,74.4,37.3,30.07,NE,55,0.0,4.0,26,0.00,,---,0.00,VWS V14.01,2013-07-13 01:07:00,
2013-07-12 17:12:00,74.6,38.5,30.07,NNE,31,2.0,4.0,27,0.00,,---,0.00,VWS V14.01,2013-07-13 01:12:00,
2013-07-12 17:17:00,74.7,38.5,30.07,SE,136,0.0,4.0,27,0.00,,---,0.00,VWS V14.01,2013-07-13 01:17:00,
2013-07-12 17:22:00,74.9,38.7,30.07,East,80,1.0,4.0,27,0.00,,---,0.00,VWS V14.01,2013-07-13 01:22:00,
2013-07-12 17:27:00,74.8,36.7,30.07,ENE,64,0.0,4.0,25,0.00,,---,0.00,VWS V14.01,2013-07-13 01:27:00,
2013-07-12 17:30:00,74.5,36.4,30.07,North,11,2.0,4.0,25,0.00,,---,0.00,VWS V14.01,2013-07-13 01:30:00,
2013-07-12 17:33:00,74.4,36.3,30.07,ENE,65,0.0,2.0,25,0.00,,---,0.00,VWS V14.01,2013-07-13 01:33:00,
2013-07-12 17:38:00,74.2,38.1,30.07,North,11,2.0,4.0,27,0.00,,---,0.00,VWS V14.01,2013-07-13 01:38:00,
2013-07-12 17:43:00,73.9,35.9,30.07,NNE,32,1.0,4.0,25,0.00,,---,0.00,VWS V14.01,2013-07-13 01:43:00,
2013-07-12 17:48:00,73.6,35.6,30.07,ENE,69,0.0,5.0,25,0.00,,---,0.00,VWS V14.01,2013-07-13 01:48:00,
2013-07-12 17:53:00,73.4,35.5,30.07,ENE,65,3.0,6.0,25,0.00,,---,0.00,VWS V14.01,2013-07-13 01:53:00,
2013-07-12 17:58:00,73.3,36.4,30.07,SE,144,0.0,6.0,26,0.00,,---,0.00,VWS V14.01,2013-07-13 01:58:00,
2013-07-12 18:00:00,73.2,35.3,30.07,SSE,155,1.0,6.0,25,0.00,,---,0.00,VWS V14.01,2013-07-13 02:00:00,
2013-07-12 18:03:00,73.3,35.4,30.07,SSE,162,0.0,2.0,25,0.00,,---,0.00,VWS V14.01,2013-07-13 02:03:00,
2013-07-12 18:08:00,73.1,33.1,30.07,ESE,112,2.0,6.0,23,0.00,,---,0.00,VWS V14.01,2013-07-13 02:08:00,
2013-07-12 18:13:00,73.0,34.1,30.07,East,80,0.0,6.0,24,0.00,,---,0.00,VWS V14.01,2013-07-13 02:13:00,
2013-07-12 18:18:00,73.1,36.2,30.07,ENE,74,0.0,6.0,26,0.00,,---,0.00,VWS V14.01,2013-07-13 02:18:00,
2013-07-12 18:23:00,73.0,33.0,30.06,SE,124,1.0,6.0,23,0.00,,---,0.00,VWS V14.01,2013-07-13 02:23:00,
2013-07-12 18:28:00,73.1,35.2,30.06,South,173,0.0,6.0,25,0.00,,---,0.00,VWS V14.01,2013-07-13 02:28:00,
2013-07-12 18:30:00,73.2,37.2,30.06,NE,49,0.0,6.0,27,0.00,,---,0.00,VWS V14.01,2013-07-13 02:30:00,
2013-07-12 18:33:00,73.3,35.4,30.06,NE,49,0.0,2.0,25,0.00,,---,0.00,VWS V14.01,2013-07-13 02:33:00,
2013-07-12 18:38:00,73.2,37.2,30.06,SE,130,0.0,6.0,27,0.00,,---,0.00,VWS V14.01,2013-07-13 02:38:00,
2013-07-12 18:43:00,73.0,36.1,30.06,ESE,109,0.0,6.0,26,0.00,,---,0.00,VWS V14.01,2013-07-13 02:43:00,
2013-07-12 18:48:00,73.0,36.1,30.06,ENE,63,0.0,6.0,26,0.00,,---,0.00,VWS V14.01,2013-07-13 02:48:00,
2013-07-12 18:53:00,72.9,36.0,30.06,NNE,28,1.0,6.0,26,0.00,,---,0.00,VWS V14.01,2013-07-13 02:53:00,
2013-07-12 18:58:00,72.7,35.9,30.06,NE,41,0.0,6.0,26,0.00,,---,0.00,VWS V14.01,2013-07-13 02:58:00,
2013-07-12 19:00:00,72.6,35.8,30.06,East,81,1.0,6.0,26,0.00,,---,0.00,VWS V14.01,2013-07-13 03:00:00,
2013-07-12 19:03:00,72.5,35.7,30.06,NNW,347,1.0,4.0,26,0.00,,---,0.00,VWS V14.01,2013-07-13 03:03:00,
2013-07-12 19:08:00,72.4,37.5,30.06,ENE,67,4.0,4.0,28,0.00,,---,0.00,VWS V14.01,2013-07-13 03:08:00,
2013-07-12 19:13:00,72.3,36.5,30.06,East,84,0.0,5.0,27,0.00,,---,0.00,VWS V14.01,2013-07-13 03:13:00,
2013-07-12 19:18:00,72.2,36.4,30.06,ENE,76,1.0,5.0,27,0.00,,---,0.00,VWS V14.01,2013-07-13 03:18:00,
2013-07-12 19:23:00,72.2,37.3,30.05,NE,48,1.0,5.0,28,0.00,,---,0.00,VWS V14.01,2013-07-13 03:23:00,
2013-07-12 19:29:00,72.1,37.2,30.05,NE,51,0.0,6.0,28,0.00,,---,0.00,VWS V14.01,2013-07-13 03:29:00,
2013-07-12 19:30:00,72.0,37.1,30.06,NE,37,1.0,6.0,28,0.00,,---,0.00,VWS V14.01,2013-07-13 03:30:00,
2013-07-12 19:34:00,72.0,37.1,30.06,ENE,64,0.0,4.0,28,0.00,,---,0.00,VWS V14.01,2013-07-13 03:34:00,
2013-07-12 19:39:00,72.0,37.1,30.06,East,91,1.0,6.0,28,0.00,,---,0.00,VWS V14.01,2013-07-13 03:39:00,
2013-07-12 19:44:00,71.9,37.1,30.06,ENE,59,0.0,6.0,28,0.00,,---,0.00,VWS V14.01,2013-07-13 03:44:00,
2013-07-12 19:49:00,71.9,38.0,30.05,ENE,60,0.0,6.0,29,0.00,,---,0.00,VWS V14.01,2013-07-13 03:49:00,
2013-07-12 19:54:00,71.7,37.8,30.05,NNE,26,3.0,6.0,29,0.00,,---,0.00,VWS V14.01,2013-07-13 03:54:00,
2013-07-12 19:59:00,71.5,36.7,30.05,NE,55,0.0,6.0,28,0.00,,---,0.00,VWS V14.01,2013-07-13 03:59:00,
2013-07-12 20:00:00,71.4,35.7,30.05,ENE,58,0.0,6.0,27,0.00,,---,0.00,VWS V14.01,2013-07-13 04:00:00,
2013-07-12 20:01:00,71.4,36.6,30.05,ENE,58,1.0,6.0,28,0.00,,---,0.00,VWS V14.01,2013-07-13 04:01:00,
2013-07-12 20:02:00,71.4,35.7,30.05,ENE,58,0.0,0.0,27,0.00,,---,0.00,VWS V14.01,2013-07-13 04:02:00,
2013-07-12 20:07:00,71.3,36.5,30.05,ENE,71,2.0,7.0,28,0.00,,---,0.00,VWS V14.01,2013-07-13 04:07:00,
2013-07-12 20:12:00,71.3,35.6,30.05,ENE,63,0.0,7.0,27,0.00,,---,0.00,VWS V14.01,2013-07-13 04:12:00,
2013-07-12 20:17:00,71.2,36.5,30.05,NE,44,1.0,7.0,28,0.00,,---,0.00,VWS V14.01,2013-07-13 04:17:00,
2013-07-12 20:22:00,71.1,36.4,30.05,ENE,61,0.0,7.0,28,0.00,,---,0.00,VWS V14.01,2013-07-13 04:22:00,
2013-07-12 20:27:00,71.0,37.2,30.05,ENE,71,0.0,7.0,29,0.00,,---,0.00,VWS V14.01,2013-07-13 04:27:00,
2013-07-12 20:30:00,70.8,37.0,30.05,ENE,68,0.0,7.0,29,0.00,,---,0.00,VWS V14.01,2013-07-13 04:30:00,
2013-07-12 20:32:00,70.9,37.1,30.05,ENE,68,0.0,0.0,29,0.00,,---,0.00,VWS V14.01,2013-07-13 04:32:00,
2013-07-12 20:37:00,70.7,36.9,30.05,ENE,63,2.0,4.0,29,0.00,,---,0.00,VWS V14.01,2013-07-13 04:37:00,
2013-07-12 20:42:00,70.7,37.8,30.05,ENE,76,0.0,6.0,30,0.00,,---,0.00,VWS V14.01,2013-07-13 04:42:00,
2013-07-12 20:47:00,70.6,36.8,30.05,NE,54,0.0,8.0,29,0.00,,---,0.00,VWS V14.01,2013-07-13 04:47:00,
2013-07-12 20:52:00,70.6,36.8,30.05,NE,56,1.0,10.0,29,0.00,,---,0.00,VWS V14.01,2013-07-13 04:52:00,
2013-07-12 20:57:00,70.5,36.7,30.05,NNE,32,0.0,10.0,29,0.00,,---,0.00,VWS V14.01,2013-07-13 04:57:00,
2013-07-12 21:00:00,70.3,37.4,30.05,ENE,63,2.0,10.0,30,0.00,,---,0.00,VWS V14.01,2013-07-13 05:00:00,
2013-07-12 21:02:00,70.3,36.6,30.05,NE,36,1.0,3.0,29,0.00,,---,0.00,VWS V14.01,2013-07-13 05:02:00,
2013-07-12 21:07:00,70.1,37.3,30.05,NE,48,0.0,5.0,30,0.00,,---,0.00,VWS V14.01,2013-07-13 05:07:00,
2013-07-12 21:12:00,69.9,37.1,30.05,ENE,65,3.0,7.0,30,0.00,,---,0.00,VWS V14.01,2013-07-13 05:12:00,
2013-07-12 21:17:00,69.8,37.0,30.05,ENE,71,1.0,7.0,30,0.00,,---,0.00,VWS V14.01,2013-07-13 05:17:00,
2013-07-12 21:22:00,69.6,36.8,30.05,NE,51,0.0,7.0,30,0.00,,---,0.00,VWS V14.01,2013-07-13 05:22:00,
2013-07-12 21:27:00,69.4,37.5,30.05,ENE,63,1.0,7.0,31,0.00,,---,0.00,VWS V14.01,2013-07-13 05:27:00,
2013-07-12 21:30:00,69.3,37.4,30.05,East,89,0.0,7.0,31,0.00,,---,0.00,VWS V14.01,2013-07-13 05:30:00,
2013-07-12 21:32:00,69.3,37.4,30.05,NE,52,4.0,4.0,31,0.00,,---,0.00,VWS V14.01,2013-07-13 05:32:00,
2013-07-12 21:36:00,69.2,37.3,30.05,NE,50,3.0,6.0,31,0.00,,---,0.00,VWS V14.01,2013-07-13 05:36:00,
2013-07-12 21:41:00,69.0,36.3,30.05,NE,54,2.0,8.0,30,0.00,,---,0.00,VWS V14.01,2013-07-13 05:41:00,
2013-07-12 21:46:00,69.0,37.1,30.05,ENE,60,0.0,8.0,31,0.00,,---,0.00,VWS V14.01,2013-07-13 05:46:00,
2013-07-12 21:51:00,68.8,37.8,30.05,NNE,20,1.0,8.0,32,0.00,,---,0.00,VWS V14.01,2013-07-13 05:51:00,
2013-07-12 21:56:00,68.7,37.7,30.05,NNE,30,2.0,8.0,32,0.00,,---,0.00,VWS V14.01,2013-07-13 05:56:00,
2013-07-12 22:00:00,68.5,37.5,30.05,ENE,63,4.0,8.0,32,0.00,,---,0.00,VWS V14.01,2013-07-13 06:00:00,
2013-07-12 22:01:00,68.5,36.7,30.05,NE,48,2.0,4.0,31,0.00,,---,0.00,VWS V14.01,2013-07-13 06:01:00,
2013-07-12 22:06:00,68.2,37.2,30.05,East,98,5.0,8.0,32,0.00,,---,0.00,VWS V14.01,2013-07-13 06:06:00,
2013-07-12 22:11:00,68.0,38.6,30.05,East,80,4.0,8.0,34,0.00,,---,0.00,VWS V14.01,2013-07-13 06:11:00,
2013-07-12 22:16:00,67.9,37.8,30.06,ENE,73,6.0,8.0,33,0.00,,---,0.00,VWS V14.01,2013-07-13 06:16:00,
2013-07-12 22:21:00,67.7,38.3,30.05,NE,55,1.0,8.0,34,0.00,,---,0.00,VWS V14.01,2013-07-13 06:21:00,
2013-07-12 22:26:00,67.4,38.8,30.05,NE,53,1.0,8.0,35,0.00,,---,0.00,VWS V14.01,2013-07-13 06:26:00,
2013-07-12 22:30:00,67.1,39.3,30.06,ENE,62,3.0,8.0,36,0.00,,---,0.00,VWS V14.01,2013-07-13 06:30:00,
2013-07-12 22:31:00,67.1,39.3,30.06,ENE,62,3.0,3.0,36,0.00,,---,0.00,VWS V14.01,2013-07-13 06:31:00,
2013-07-12 22:36:00,66.8,38.3,30.05,ENE,67,1.0,7.0,35,0.00,,---,0.00,VWS V14.01,2013-07-13 06:36:00,
2013-07-12 22:41:00,66.6,38.8,30.05,NE,42,2.0,7.0,36,0.00,,---,0.00,VWS V14.01,2013-07-13 06:41:00,
2013-07-12 22:46:00,66.4,38.7,30.05,North,5,1.0,7.0,36,0.00,,---,0.00,VWS V14.01,2013-07-13 06:46:00,
2013-07-12 22:51:00,66.2,38.5,30.05,ENE,62,3.0,11.0,36,0.00,,---,0.00,VWS V14.01,2013-07-13 06:51:00,
2013-07-12 22:56:00,66.0,38.3,30.06,ENE,69,0.0,11.0,36,0.00,,---,0.00,VWS V14.01,2013-07-13 06:56:00,
2013-07-12 23:00:00,66.0,39.0,30.06,NNE,26,1.0,11.0,37,0.00,,---,0.00,VWS V14.01,2013-07-13 07:00:00,
2013-07-12 23:01:00,66.0,39.0,30.06,NE,43,2.0,2.0,37,0.00,,---,0.00,VWS V14.01,2013-07-13 07:01:00,
2013-07-12 23:06:00,65.8,38.8,30.05,East,98,1.0,9.0,37,0.00,,---,0.00,VWS V14.01,2013-07-13 07:06:00,
2013-07-12 23:11:00,65.7,38.7,30.05,ENE,71,4.0,10.0,37,0.00,,---,0.00,VWS V14.01,2013-07-13 07:11:00,
2013-07-12 23:16:00,65.7,38.7,30.05,NNE,30,2.0,11.0,37,0.00,,---,0.00,VWS V14.01,2013-07-13 07:16:00,
2013-07-12 23:21:00,65.6,39.3,30.05,NE,46,6.0,12.0,38,0.00,,---,0.00,VWS V14.01,2013-07-13 07:21:00,
2013-07-12 23:26:00,65.6,38.7,30.05,NNE,26,2.0,12.0,37,0.00,,---,0.00,VWS V14.01,2013-07-13 07:26:00,
2013-07-12 23:30:00,65.4,39.2,30.06,ENE,74,2.0,12.0,38,0.00,,---,0.00,VWS V14.01,2013-07-13 07:30:00,
2013-07-12 23:31:00,65.4,39.2,30.06,ENE,74,2.0,12.0,38,0.00,,---,0.00,VWS V14.01,2013-07-13 07:31:00,
2013-07-12 23:36:00,65.2,39.6,30.06,North,11,3.0,7.0,39,0.00,,---,0.00,VWS V14.01,2013-07-13 07:36:00,
2013-07-12 23:41:00,65.0,40.1,30.06,East,80,2.0,10.0,40,0.00,,---,0.00,VWS V14.01,2013-07-13 07:41:00,
2013-07-12 23:46:00,64.8,39.9,30.06,NNE,32,6.0,12.0,40,0.00,,---,0.00,VWS V14.01,2013-07-13 07:46:00,
2013-07-12 23:51:00,64.7,39.2,30.06,NNE,19,6.0,12.0,39,0.00,,---,0.00,VWS V14.01,2013-07-13 07:51:00,
2013-07-12 23:56:00,64.6,39.8,30.06,East,93,2.0,12.0,40,0.00,,---,0.00,VWS V14.01,2013-07-13 07:56:00,